Location: Poughquag
(41.6090°N, 73.6820°W)
Time: 14:51:04
(UTC-04:00)

Vanguard 3 - Pass Details

Date: 07 June 2020
Orbit: 510 x 3261 km, 33.3° (Epoch: 05 July)

Event Time Altitude Azimuth Distance (km) Brightness Sun altitude
Rises 22:58:15 0° 202° (SSW) 6,600 11.4 -20.2°
Reaches altitude 10° 23:03:21 10° 192° (SSW) 5,863 11.1 -20.6°
Enters shadow 23:05:57 15° 186° (S) 5,537 10.9 -20.8°
Exits shadow 23:12:56 26° 163° (SSE) 4,910 10.5 -21.4°
Maximum altitude 23:18:12 29° 141° (SE) 4,745 10.4 -21.8°
Drops below altitude 10° 23:32:45 10° 91° (E) 5,798 11.3 -22.8°
Sets 23:37:38 0° 81° (E) 6,526 11.7 -23.1°
